When you browse on this site, cookies collect data to enhance your experience and personalize the content and advertising you see.
Visit our Privacy Policy to learn more. By continuing to use the site, you agree to this use of cookies and data.
  • In Sweden
  • List of Countries
  • For 7 days
  • Water Temperature
  • Satellite Maps
  • Weather Map
  • Weather Widgets
  • user-avatar
    Login

    Hourly Weather Onyshkivtsi

    Today, 20 June, Thursday

    Time Temperature Precipitation Wind Pressure Humidity
    00:00 +20°C° 0 mm 3 mps 739 mmHg 92%
    01:00 +20°C° 0 mm 3 mps 739 mmHg 92%
    02:00 +19°C° 0 mm 2 mps 739 mmHg 94%
    03:00 +19°C° 0 mm 2 mps 739 mmHg 94%
    04:00 +19°C° 0 mm 2 mps 739 mmHg 94%
    05:00 +19°C° 0 mm 2 mps 739 mmHg 94%
    06:00 +21°C° 0 mm 2 mps 739 mmHg 90%
    07:00 +23°C° 0 mm 2 mps 739 mmHg 86%
    08:00 +24°C° 0 mm 2 mps 739 mmHg 82%
    09:00 +26°C° 0.2 mm 2 mps 739 mmHg 75%
    10:00 +27°C° 0.2 mm 2 mps 739 mmHg 68%
    11:00 +29°C° 0.2 mm 2 mps 739 mmHg 61%
    12:00 +29°C° 0 mm 2 mps 739 mmHg 59%
    13:00 +30°C° 0 mm 2 mps 739 mmHg 58%
    14:00 +30°C° 0 mm 3 mps 739 mmHg 56%
    15:00 +30°C° 0 mm 2 mps 739 mmHg 58%
    16:00 +30°C° 0 mm 2 mps 738 mmHg 60%
    17:00 +29°C° 0 mm 2 mps 738 mmHg 62%
    18:00 +28°C° 0.3 mm 2 mps 738 mmHg 68%
    19:00 +26°C° 0.3 mm 2 mps 738 mmHg 75%
    20:00 +24°C° 0.3 mm 2 mps 738 mmHg 81%
    21:00 +24°C° 0.1 mm 2 mps 738 mmHg 84%
    22:00 +23°C° 0.1 mm 2 mps 738 mmHg 87%
    23:00 +21°C° 0.1 mm 2 mps 738 mmHg 90%

    Tomorrow, 21 June, Friday

    Time Temperature Precipitation Wind Pressure Humidity
    00:00 +21°C° 0 mm 2 mps 738 mmHg 90%
    01:00 +21°C° 0 mm 2 mps 739 mmHg 91%
    02:00 +20°C° 0 mm 2 mps 739 mmHg 91%
    03:00 +20°C° 0 mm 2 mps 739 mmHg 91%
    04:00 +20°C° 0 mm 2 mps 739 mmHg 92%
    05:00 +20°C° 0 mm 2 mps 739 mmHg 92%
    06:00 +21°C° 0 mm 2 mps 739 mmHg 88%
    07:00 +24°C° 0 mm 2 mps 739 mmHg 85%
    08:00 +25°C° 0 mm 3 mps 740 mmHg 81%
    09:00 +27°C° 0 mm 3 mps 740 mmHg 76%
    10:00 +28°C° 0 mm 3 mps 740 mmHg 72%
    11:00 +29°C° 0 mm 4 mps 740 mmHg 67%
    12:00 +29°C° 0.5 mm 4 mps 740 mmHg 67%
    13:00 +29°C° 0.5 mm 4 mps 739 mmHg 67%
    14:00 +30°C° 0.5 mm 4 mps 739 mmHg 67%
    15:00 +30°C° 0.3 mm 3 mps 739 mmHg 66%
    16:00 +30°C° 0.3 mm 2 mps 739 mmHg 66%
    17:00 +30°C° 0.3 mm 2 mps 739 mmHg 66%
    18:00 +28°C° 1.4 mm 2 mps 739 mmHg 72%
    19:00 +26°C° 1.4 mm 2 mps 739 mmHg 78%
    20:00 +25°C° 1.4 mm 2 mps 739 mmHg 84%
    21:00 +24°C° 0.1 mm 2 mps 739 mmHg 86%
    22:00 +23°C° 0.1 mm 2 mps 739 mmHg 88%
    23:00 +21°C° 0.1 mm 2 mps 739 mmHg 90%

    Day after tomorrow, 22 June, Saturday

    Time Temperature Precipitation Wind Pressure Humidity
    00:00 +21°C° 0 mm 1 mps 739 mmHg 90%
    01:00 +21°C° 0 mm 1 mps 739 mmHg 90%
    02:00 +20°C° 0 mm 1 mps 739 mmHg 90%
    03:00 +21°C° 0 mm 1 mps 739 mmHg 90%
    04:00 +21°C° 0 mm 1 mps 739 mmHg 90%
    05:00 +21°C° 0 mm 1 mps 739 mmHg 90%
    06:00 +22°C° 0.1 mm 1 mps 740 mmHg 87%
    07:00 +23°C° 0.1 mm 2 mps 740 mmHg 85%
    08:00 +24°C° 0.1 mm 2 mps 740 mmHg 83%
    09:00 +25°C° 1 mm 2 mps 740 mmHg 79%
    10:00 +26°C° 1 mm 2 mps 740 mmHg 76%
    11:00 +27°C° 1 mm 2 mps 740 mmHg 72%
    12:00 +28°C° 0.4 mm 2 mps 740 mmHg 69%
    13:00 +28°C° 0.4 mm 2 mps 740 mmHg 65%
    14:00 +29°C° 0.4 mm 2 mps 740 mmHg 61%
    15:00 +28°C° 0.8 mm 2 mps 740 mmHg 64%
    16:00 +28°C° 0.8 mm 2 mps 740 mmHg 67%
    17:00 +28°C° 0.8 mm 2 mps 740 mmHg 70%
    18:00 +26°C° 1.2 mm 2 mps 740 mmHg 75%
    19:00 +25°C° 1.2 mm 2 mps 740 mmHg 80%
    20:00 +23°C° 1.2 mm 2 mps 740 mmHg 85%
    21:00 +23°C° 0.2 mm 2 mps 740 mmHg 87%
    22:00 +21°C° 0.2 mm 2 mps 740 mmHg 90%
    23:00 +21°C° 0.2 mm 2 mps 740 mmHg 92%

    23 June, Sunday

    Time Temperature Precipitation Wind Pressure Humidity
    00:00 +20°C° 0.4 mm 2 mps 740 mmHg 93%
    01:00 +21°C° 0.4 mm 1 mps 740 mmHg 93%
    02:00 +21°C° 0.4 mm 1 mps 740 mmHg 94%
    03:00 +21°C° 0.2 mm 1 mps 740 mmHg 94%
    04:00 +21°C° 0.2 mm 1 mps 740 mmHg 94%
    05:00 +21°C° 0.2 mm 1 mps 740 mmHg 94%
    06:00 +22°C° 0 mm 1 mps 740 mmHg 91%
    07:00 +21°C° 0 mm 0 mps 740 mmHg 88%
    08:00 +22°C° 0 mm 0 mps 740 mmHg 85%
    09:00 +25°C° 0.9 mm 1 mps 740 mmHg 83%
    10:00 +25°C° 0.9 mm 1 mps 740 mmHg 80%
    11:00 +26°C° 0.9 mm 1 mps 740 mmHg 77%
    12:00 +26°C° 1.8 mm 1 mps 741 mmHg 77%
    13:00 +26°C° 1.8 mm 2 mps 741 mmHg 77%
    14:00 +26°C° 1.8 mm 2 mps 741 mmHg 77%
    15:00 +26°C° 0.8 mm 2 mps 741 mmHg 79%
    16:00 +26°C° 0.8 mm 2 mps 741 mmHg 81%
    17:00 +26°C° 0.8 mm 2 mps 741 mmHg 82%
    18:00 +25°C° 0.2 mm 2 mps 741 mmHg 84%
    19:00 +24°C° 0.2 mm 2 mps 741 mmHg 85%
    20:00 +23°C° 0.2 mm 2 mps 741 mmHg 87%
    21:00 +23°C° 0.7 mm 2 mps 741 mmHg 89%
    22:00 +21°C° 0.7 mm 2 mps 741 mmHg 90%
    23:00 +20°C° 0.7 mm 2 mps 742 mmHg 92%

    24 June, Monday

    Time Temperature Precipitation Wind Pressure Humidity
    00:00 +21°C° 0.1 mm 1 mps 742 mmHg 92%
    01:00 +20°C° 0.1 mm 1 mps 742 mmHg 92%
    02:00 +20°C° 0.1 mm 1 mps 742 mmHg 92%
    03:00 +20°C° 0 mm 1 mps 742 mmHg 92%
    04:00 +20°C° 0 mm 1 mps 742 mmHg 92%
    05:00 +20°C° 0 mm 1 mps 742 mmHg 92%
    06:00 +21°C° 0 mm 1 mps 743 mmHg 89%
    07:00 +23°C° 0 mm 1 mps 743 mmHg 85%
    08:00 +24°C° 0 mm 1 mps 743 mmHg 81%
    09:00 +25°C° 0.7 mm 1 mps 743 mmHg 78%
    10:00 +26°C° 0.7 mm 1 mps 743 mmHg 75%
    11:00 +27°C° 0.7 mm 1 mps 744 mmHg 72%
    12:00 +28°C° 1.6 mm 2 mps 744 mmHg 72%
    13:00 +28°C° 1.6 mm 2 mps 744 mmHg 72%
    14:00 +28°C° 1.6 mm 2 mps 744 mmHg 72%
    15:00 +27°C° 0.3 mm 2 mps 744 mmHg 75%
    16:00 +27°C° 0.3 mm 3 mps 744 mmHg 78%
    17:00 +26°C° 0.3 mm 3 mps 744 mmHg 81%
    18:00 +25°C° 0.1 mm 3 mps 744 mmHg 84%
    19:00 +24°C° 0.1 mm 3 mps 744 mmHg 87%
    20:00 +23°C° 0.1 mm 2 mps 744 mmHg 90%
    21:00 +21°C° 0.5 mm 2 mps 744 mmHg 91%
    22:00 +21°C° 0.5 mm 2 mps 744 mmHg 93%
    23:00 +20°C° 0.5 mm 2 mps 745 mmHg 94%

    25 June, Tuesday

    Time Temperature Precipitation Wind Pressure Humidity
    00:00 +19°C° 0 mm 2 mps 745 mmHg 95%
    01:00 +19°C° 0 mm 2 mps 745 mmHg 96%
    02:00 +19°C° 0 mm 3 mps 745 mmHg 97%
    03:00 +18°C° 0 mm 3 mps 745 mmHg 97%
    04:00 +18°C° 0 mm 2 mps 745 mmHg 98%
    05:00 +18°C° 0 mm 2 mps 745 mmHg 98%
    06:00 +19°C° 0 mm 3 mps 745 mmHg 97%
    07:00 +20°C° 0 mm 3 mps 746 mmHg 96%
    08:00 +20°C° 0 mm 3 mps 746 mmHg 95%
    09:00 +21°C° 0 mm 3 mps 746 mmHg 93%
    10:00 +21°C° 0 mm 3 mps 746 mmHg 91%
    11:00 +22°C° 0 mm 4 mps 746 mmHg 90%
    12:00 +23°C° 0.3 mm 4 mps 746 mmHg 85%
    13:00 +25°C° 0.3 mm 4 mps 746 mmHg 81%
    14:00 +26°C° 0.3 mm 4 mps 746 mmHg 77%
    15:00 +26°C° 0.9 mm 4 mps 746 mmHg 78%
    16:00 +26°C° 0.9 mm 4 mps 746 mmHg 80%
    17:00 +26°C° 0.9 mm 4 mps 746 mmHg 81%
    18:00 +25°C° 0.4 mm 4 mps 746 mmHg 84%
    19:00 +24°C° 0.4 mm 3 mps 746 mmHg 88%
    20:00 +21°C° 0.4 mm 3 mps 746 mmHg 91%
    21:00 +21°C° 0 mm 3 mps 746 mmHg 92%
    22:00 +20°C° 0 mm 3 mps 747 mmHg 93%
    23:00 +19°C° 0 mm 3 mps 747 mmHg 94%
    Show more